Location: The D'Auria's Ocala Star Observatory
(29.0276°N, 82.1742°W)
Time: 10:44:31
(UTC-04:00)

Daily predictions for brighter satellites

Satellite Brightness Start Highest point End
(mag) Time Altitude Azimuth Time Altitude Azimuth Time Altitude Azimuth
Cosmos 1825 Rocket 3.6 19:36:30 10° N 19:40:57 84° E 19:45:24 10° S
Cosmos 482 Debris 4.0 19:40:06 10° NW 19:43:49 45° NE 19:46:11 10° ESE
Milstar 3 Cent rocket 2.5 19:38:27 10° WSW 19:45:25 57° SSE 19:50:04 10° E
OAO 3 Rocket 4.4 19:42:45 10° SSW 19:46:54 27° SSE 19:51:00 10° E
METEOR-M 4.1 19:42:19 10° SSE 19:47:39 77° ENE 19:53:00 10° N
FENGYUN 3A 4.0 19:43:38 10° SE 19:48:38 42° ENE 19:53:40 10° N
Cosmos 1656 Rocket 4.1 19:43:42 10° N 19:48:58 41° ENE 19:54:08 10° SE
USA 229 DEB 4.0 19:48:31 10° NNW 19:55:47 82° WSW 20:03:09 10° SSE
USA 229 4.0 19:48:37 10° NNW 19:55:53 83° WSW 20:03:14 10° SSE
Cosmos 841 Rocket 4.3 19:52:06 10° SSW 19:57:07 54° WNW 20:02:09 10° N
CZ-4 R/B 4.0 19:54:26 10° SSW 19:57:54 26° W 20:01:26 10° NW
H-2A R/B 3.9 19:55:32 10° SE 19:58:24 21° ENE 20:01:18 10° NNE
Cosmos 1544 3.6 19:55:18 10° SSE 19:58:36 35° E 20:01:55 10° NNE
SJ-6B 4.1 19:57:01 10° ESE 20:00:03 21° ENE 20:03:03 10° NNE
Cosmos 1953 3.9 20:02:33 10° SE 20:05:00 16° E 20:07:27 10° NE
Cosmos 2150 Rocket 4.2 20:00:13 10° NNW 20:05:36 83° WSW 20:11:02 10° SSE
Cosmos 540 Rocket 3.4 20:01:08 10° SSW 20:06:13 82° ESE 20:11:20 10° NNE
BREEZE-M (TANK) 4.4 19:53:48 10° NW 20:06:18 39° NNE 20:09:26 16° E
NOSS 3-1 (C) 4.2 20:00:06 10° NNW 20:07:58 63° ENE 20:16:26 10° SE
USA 81 4.0 20:04:43 10° N 20:10:01 84° E 20:15:18 10° S
Cosmos 1937 Rocket 4.0 20:05:13 10° NNW 20:10:27 64° WSW 20:15:36 10° S
Cosmos 292 Rocket 4.3 20:07:05 10° SSE 20:11:29 36° E 20:15:54 10° NE
SL-27 R/B 2.8 20:08:36 10° S 20:11:59 44° ESE 20:15:27 10° NNE
Cosmos 1378 3.8 20:13:01 10° NNW 20:16:45 59° W 20:20:26 10° S
COSMOS 2406 3.9 20:12:54 10° SSW 20:18:29 57° WNW 20:24:06 10° N
HJ-1C 4.1 20:19:34 25° ESE 20:20:37 31° ENE 20:23:37 10° NNE
Meteor 1-22 Rocket 4.3 20:16:47 10° S 20:22:33 81° W 20:28:06 10° N
Cosmos 1707 4.2 20:20:44 10° NNW 20:24:25 40° W 20:28:05 10° SSW
SJ 16-02 2.6 20:21:49 10° NNE 20:24:56 21° ENE 20:24:56 21° ENE
Cosmos 1766 3.5 20:21:15 10° SSW 20:25:09 70° W 20:29:03 10° N
In-Cosmos 22 4.3 20:20:02 10° N 20:25:39 55° E 20:31:17 10° SSE
Cosmos 1356 Rocket 3.5 20:23:58 10° N 20:28:17 87° W 20:32:33 10° S
Cosmos 1833 Rocket 3.9 20:24:44 10° SSE 20:27:34 20° ESE 20:27:34 20° ESE
Meteor 2-5 Rocket 4.5 20:28:59 10° NNW 20:34:38 56° W 20:40:08 10° S
FengYun 1-2 T 4.1 20:30:35 10° SSE 20:36:10 75° ENE 20:41:44 10° N
ALOS 3.1 20:31:48 10° S 20:36:19 51° W 20:40:52 10° NNW
ISS -0.9 20:35:07 10° WNW 20:37:13 16° NW 20:39:19 10° N
Cosmos 2154 Rocket 3.9 20:31:17 10° S 20:37:24 65° E 20:43:34 10° NNE
Spot 2 Rocket 4.2 20:51:00 34° ENE 20:51:00 34° ENE 20:54:57 10° N
Cosmos 1758 3.1 20:46:27 10° S 20:50:28 84° E 20:54:28 10° N
Cosmos 1812 Rocket 4.0 20:47:51 10° SSW 20:52:14 62° W 20:56:40 10° N
Cosmos 2341 Rocket 3.9 20:46:35 10° S 20:52:39 59° E 20:58:44 10° NNE
FREGAT/IRIS 4.4 20:50:41 10° SSW 20:53:26 32° W 20:56:12 10° NNW
Cosmos 2082 Rocket 2.8 20:49:45 10° S 20:53:28 34° SE 20:53:28 34° SE
Cosmos 1805 4.2 20:51:39 10° SSW 20:55:25 49° W 20:59:12 10° N
USA 234 3.8 20:51:28 12° SSE 20:57:26 56° SW 21:03:52 10° NW
ATLAS 5 CENTAUR R/B 1.6 20:53:30 10° SSW 20:57:39 60° SE 20:57:39 60° SE
ATLAS 3B CENTAUR R/B 4.4 20:50:01 10° W 20:59:30 86° S 21:14:14 30° E
Meteor 2-8 Rocket 4.4 20:53:23 10° N 20:59:30 82° W 21:05:34 10° S
Resurs 01 Rocket 2.2 21:01:55 41° NNE 21:01:55 41° NNE 21:05:07 10° N
CZ-2D R/B 4.0 21:04:04 41° N 21:04:04 41° N 21:06:39 10° N
GP-B 3.0 21:03:09 10° N 21:07:35 83° W 21:08:55 45° SSW
ATLAS CENTAUR R/B 2.4 21:00:40 10° NW 21:09:42 73° WSW 21:10:27 58° S
Nadezhda 3 Rocket 3.9 21:07:49 10° N 21:14:07 88° E 21:17:43 27° S
Mugunghwa Rocket 4.1 21:12:01 10° WSW 21:19:12 60° SSE 21:19:50 57° SE
Cosmos 2285 Rocket 4.0 21:13:19 10° SSW 21:19:43 84° WNW 21:26:12 10° NNE
Cosmos 372 Rocket 4.3 21:14:46 10° NNW 21:19:58 65° WSW 21:21:22 46° SSW
Cosmos 1809 Rocket 4.3 21:14:38 10° S 21:20:45 76° E 21:26:52 10° N
Lacrosse 4 Rocket 3.9 21:16:28 10° SSW 21:17:08 14° SSW 21:17:08 14° SSW
Yuri Rocket 3.6 21:16:29 10° W 21:20:14 54° WSW 21:20:14 54° WSW
Envisat 3.5 21:24:15 48° N 21:24:15 48° N 21:27:56 10° N
Cosmos 1295 Rocket 4.4 21:17:48 10° S 21:23:55 84° W 21:30:01 10° N
Cosmos 1125 Rocket 4.3 21:20:00 10° NNW 21:25:06 49° WSW 21:27:19 31° SSW
OAO 3 Rocket 3.9 21:25:20 10° WSW 21:29:00 51° W 21:29:00 51° W
Gbstr 26 Del rocket 3.9 21:25:52 10° WSW 21:30:37 60° NW 21:31:04 58° NNW
SL-8 Rocket 4.5 21:38:36 49° N 21:38:36 49° N 21:42:56 10° N
ATLAS 2AS CENTAUR R/B 3.8 21:35:01 10° NNW 21:40:36 34° NNE 21:40:36 34° NNE
SJ 16-02 3.9 22:00:10 10° NW 22:02:00 18° WNW 22:02:00 18° WNW
Milstar 3 Cent rocket 4.4 22:18:06 10° W 22:19:07 16° W 22:19:07 16° W
Centaur D AC-29 3.9 22:21:44 10° W 22:24:06 20° W 22:24:06 20° W
